Location: San Antonio
(29.4240°N, 98.4930°W)
Time: 11:03:15
(UTC-05:00)

ISS - All Passes

Search period start: 28 March 2015 00:00
Search period end: 07 April 2015 00:00
Orbit: 396 x 406 km, 51.6° (Epoch: 28 March)

Date Brightness Start Highest point End Pass type
(mag) Time Alt. Az. Time Alt. Az. Time Alt. Az.
28 Mar - 07:55:41 10° NW 07:58:54 76° SW 08:02:06 10° SE daylight
28 Mar - 22:53:52 10° SSW 22:57:04 60° SE 23:00:17 10° NE night (unlit)
29 Mar - 00:32:49 10° NW 00:33:47 11° NNW 00:34:38 10° NNW night (unlit)
29 Mar - 07:02:28 10° NNW 07:05:32 41° NE 07:08:35 10° ESE visible
29 Mar - 08:41:08 10° WSW 08:41:40 10° SW 08:42:02 10° SW daylight
29 Mar - 22:01:06 10° S 22:03:46 24° SE 22:06:29 10° ENE night (unlit)
29 Mar - 23:37:38 10° W 23:40:09 20° NW 23:42:38 10° N night (unlit)
30 Mar - 06:09:35 10° N 06:12:01 20° NE 06:14:29 10° E visible
30 Mar - 07:45:43 10° WNW 07:48:23 24° SW 07:51:01 10° S daylight
30 Mar - 21:09:57 10° SE 21:10:28 10° SE 21:11:11 10° ESE night (unlit)
30 Mar - 22:43:30 10° WSW 22:46:37 42° NW 22:49:44 10° NNE night (unlit)
31 Mar - 05:17:39 10° NNE 05:18:21 11° NNE 05:19:09 10° NE visible
31 Mar - 06:51:53 10° NW 06:55:04 61° SW 06:58:13 10° SSE visible
31 Mar - 21:49:55 10° SW 21:53:10 76° SE 21:56:25 10° NE visible
01 Apr - 05:58:28 10° NNW 06:01:37 50° NE 06:04:45 10° ESE visible
01 Apr - 20:56:55 10° S 20:59:46 29° SE 21:02:40 10° ENE visible
01 Apr - 22:33:54 10° W 22:36:13 17° NW 22:38:28 10° N visible
02 Apr - 05:05:25 10° NNW 05:08:03 23° NE 05:10:42 10° E visible
02 Apr - 06:41:54 10° WNW 06:44:21 20° SW 06:46:44 10° S visible
02 Apr - 20:04:58 10° SSE 20:06:23 13° SE 20:07:58 10° E daylight
02 Apr - 21:39:32 10° WSW 21:42:34 35° NW 21:45:36 10° NNE visible
03 Apr - 04:13:00 10° N 04:14:19 12° NE 04:15:44 10° ENE night (unlit)
03 Apr - 05:47:50 10° NW 05:50:57 48° SW 05:54:03 10° SSE visible
03 Apr - 20:45:45 10° SW 20:49:00 88° NW 20:52:16 10° NE visible
04 Apr - 04:54:15 10° NW 04:57:27 62° NE 05:00:38 10° SE night (unlit)
04 Apr - 19:52:31 10° SSW 19:55:30 35° SE 19:58:32 10° ENE daylight
04 Apr - 21:29:57 10° WNW 21:32:01 15° NW 21:34:01 10° N visible
05 Apr - 04:01:02 10° NNW 04:03:49 26° NE 04:06:37 10° E night (unlit)
05 Apr - 05:37:53 10° W 05:40:04 17° SW 05:42:09 10° SSW night (unlit)
05 Apr - 19:00:08 10° SSE 19:02:02 15° SE 19:04:02 10° E daylight
05 Apr - 20:35:20 10° WSW 20:38:15 30° NW 20:41:10 10° NNE visible
06 Apr - 03:08:18 10° N 03:10:02 14° NE 03:11:50 10° ENE night (unlit)
06 Apr - 04:43:31 10° WNW 04:46:34 39° SW 04:49:35 10° SSE night (unlit)
06 Apr - 19:41:20 10° SW 19:44:35 72° NW 19:47:50 10° NE daylight
